www.pogodaiklimat.ru

Погода и климат >> Архив погоды >> Россия >> Мурманская область >> Ковдор


ПОГОДА в Ковдоре

  • Прогноз погоды в Ковдоре
  • Монитор погоды в Ковдоре
  • Климат города

АРХИВ ПОГОДЫ в Ковдоре

Время (UTC), дата Ветер
(напр.,м/с)
 
Видим.   Явления Облачность Т
(С)
Тd
(С)
f
(%)
Тe
(С)
Тes
(С)
Комфортность P
(гПа)
Po
(гПа)
Тmin
(С)
Tmax
(С)
R
(мм)
R24
(мм)
S
(см)
12 15.04 ЮЗ 1
{2}
20 км 7 баллов +6.1 -6.2 41 +6 +8 1025.0 994.7
15 15.04 ЮЗ 1
{2}
20 км 9 баллов +5.8 -4.6 47 +5 +6 1022.3 992.0
18 15.04 СВ 1
{1}
20 км 9 баллов +1.1 -2.8 75 -1 -1 1021.4 990.7 +7.2
21 15.04 штиль 0 20 км 8/0
[Ci sp]
-1.0 -3.3 84 -2 -2 1020.6 989.6
00 16.04 штиль 0 20 км 8/0
[Ac trans Ci sp]
-1.4 -3.0 89 -3 -3 1019.9 988.9
03 16.04 штиль 0 20 км 7 баллов -1.5 -3.1 89 -3 -3 1020.3 989.3 -2.3
06 16.04 штиль 0 20 км 7 баллов +1.7 -2.3 75 +1 +2 1018.6 988.0 -2.3
09 16.04 Ю 1
{3}
20 км 4/0
[Ac trans]
+7.7 -3.9 44 +8 +13 1016.4 986.6
12 16.04 штиль 0 20 км 9/0
[Ac trans]
+8.5 -6.4 34 +8 +12 1015.5 985.7
15 16.04 штиль 0 20 км 10 баллов +6.5 -2.4 53 +6 +6 1015.3 985.3
18 16.04 штиль 0 20 км 10 баллов +3.9 -2.1 65 +3 +3 1015.6 985.3 +9.5
21 16.04 штиль 0 20 км 9 баллов +1.5 -1.6 80 +1 +1 1017.3 986.7
00 17.04 штиль 0 20 км 9/9 1000 м
[Sc]
-0.0 -1.9 87 -1 -1 1016.8 986.1
03 17.04 СВ 1
{1}
20 км 5 баллов -1.9 -2.7 94 -4 -4 1019.0 988.0 -2.0
06 17.04 штиль 0 20 км ясно +4.9 -1.8 62 +4 +9 1018.2 988.0 -2.0
09 17.04 штиль 0 20 км ясно +8.8 -2.4 45 +9 +18 1017.9 988.1
12 17.04 ЮЗ 1
{3}
20 км ясно +10.2 -4.3 36 +10 +17 1017.5 987.9
15 17.04 ЮЗ 1
{2}
20 км ясно +9.8 -3.2 40 +10 +12 1016.9 987.2
18 17.04 С 1
{1}
20 км ясно +3.6 -2.2 66 +3 +3 1018.4 988.0 +11.1
21 17.04 С 1
{1}
20 км ясно -0.6 -2.9 84 -3 -3 1018.5 987.7
00 18.04 З 1
{2}
20 км ясно -1.6 -3.5 87 -4 -4 1020.3 989.3
03 18.04 ЮЗ 1
{1}
20 км ясно -1.8 -3.8 86 -4 -4 1019.0 988.0 -2.6
06 18.04 ЮЗ 1
{3}
20 км 4 балла +5.3 -3.0 55 +5 +7 1018.2 988.0 -2.6
09 18.04 З 2
{4}
20 км ясно +9.4 -2.7 43 +8 +15 1016.5 986.8
12 18.04 З 1
{3}
20 км 7 баллов +10.4 -2.3 41 +11 +13 1017.6 988.0
15 18.04 З 2
{4}
20 км 6 баллов +10.5 -2.9 39 +10 +10 1016.3 986.7
18 18.04 штиль 0 20 км 9 баллов +5.4 -2.0 59 +5 +5 1016.8 986.7 +11.0
21 18.04 С 1
{3}
20 км 9/0
[Ac trans]
+3.6 -1.7 68 +2 +2 1016.1 985.8
00 19.04 С 2
{5}
20 км 6 баллов +1.3 -1.8 80 -2 -2 1017.3 986.7
03 19.04 С 2
{4}
20 км 7 баллов -0.1 -2.2 86 -4 -4 1018.8 988.0 -0.1
06 19.04 СЗ 2
{3}
20 км слабый ливневой снег 10 баллов +0.4 -0.2 96 -3 -3 1021.5 990.7 -0.2 0.0
09 19.04 С 2
{6}
20 км 9 баллов +1.6 -3.5 69 -1 -1 1022.7 992.0
12 19.04 С 3
{6}
20 км 9 баллов +0.8 -5.6 62 -3 -3 1024.2 993.3
15 19.04 С 2
{4}
20 км 9 баллов +0.9 -8.1 51 -2 -2 1025.6 994.7 0.1
18 19.04 СВ 1
{3}
20 км 7 баллов -2.2 -8.3 63 -4 -4 1026.0 994.7 +2.0 0.1
21 19.04 СВ 1
{3}
20 км 9/0
[Ci sp]
-3.5 -8.3 69 -5 -5 1024.1 992.8
00 20.04 штиль 0 20 км 5/0
[Ci sp]
-7.0 -8.6 88 -8 -8 1023.5 991.8
03 20.04 ЮВ 1
{2}
20 км 9 баллов -5.9 -8.3 83 -8 -8 1022.3 990.7 -7.8
06 20.04 ЮВ 2
{4}
20 км 9 баллов -3.4 -7.5 73 -7 -7 1019.2 988.0 -7.8
09 20.04 ЮВ 2
{4}
20 км слабый снег 10 баллов -2.4 -4.3 87 -6 -6 1016.3 985.3
12 20.04 ЮВ 2
{5}
20 км слабый снег 10 баллов -1.6 -3.6 86 -5 -5 1013.5 982.7
15 20.04 ЮВ 3
{6}
20 км слабый снег 10 баллов -1.8 -3.5 88 -7 -7 1012.1 981.3 3
18 20.04 В 2
{4}
20 км слабый снег 10 баллов -3.4 -4.5 92 -8 -8 1009.6 978.7 -1.5 3
21 20.04 ЮВ 3
{6}
10 км слабый снег 10 баллов -4.5 -6.3 87 -10 -10 1008.3 977.3
00 21.04 ЮВ 2
{4}
10 км слабый снег 10 баллов -4.9 -6.1 91 -9 -9 1007.0 976.0
03 21.04 В 2
{4}
20 км слабый снег 10/4 300 м
[Frnb As op]
-5.3 -6.6 91 -10 -10 1005.3 974.4 -5.3 2
06 21.04 В 3
{4}
20 км в посл. час снег 9 баллов -4.3 -7.2 80 -10 -9 1005.6 974.7 -5.4 2
09 21.04 ЮВ 2
{4}
20 км в посл. час ливневой снег 10 баллов -2.7 -7.4 70 -6 -6 1006.7 976.0
12 21.04 ЮВ 1
{3}
20 км 9 баллов -1.3 -8.3 59 -3 -2 1006.6 976.0
15 21.04 Ю 1
{3}
20 км в посл. час ливневой снег 9 баллов -1.6 -7.1 66 -3 -3 1007.9 977.3 0.2
18 21.04 Ю 1
{2}
20 км 7 баллов -2.5 -7.8 67 -4 -4 1009.5 978.7 -1.2 0.0
21 21.04 штиль 0 20 км 4/4 600 м
[Sc]
-4.9 -7.8 80 -6 -6 1009.5 978.5
00 22.04 штиль 0 20 км 8/3 600 м
[Sc Ac trans]
-8.5 -9.2 95 -9 -9 1011.5 980.0
03 22.04 штиль 0 20 км 2 балла -9.5 -10.0 96 -10 -10 1014.5 982.7 -10.2
06 22.04 ЮЗ 1
{3}
20 км ясно -2.2 -9.8 56 -4 0 1013.6 982.7 -10.2
09 22.04 З 2 20 км 4/4 600 м
[Sc]
+0.7 -10.1 44 -2 +3 1013.1 982.6

 

Местоположение метеостанции Ковдор (Мурманская область, Россия): широта 67.57 долгота 30.45 высота над уровнем моря 246 м.

В архиве по умолчанию представлена погода в Ковдоре за последнюю неделю. Архивные данные за месяц целиком и за предыдущие месяцы, начиная с января 2011 года, Вы можете получить, выбрав интересующий диапазон дат из раскрывающегося списка и нажав кнопку "Ввод!".


*Определитесь, кто Вы:
робот инопланетянин человек

Внимание! Время в таблицах - всемирное. Для получения местного времени необходимо прибавить поправку, которая в Ковдоре равна 3 ч.

Смотрите также архив погоды в соседних городах и на ближайших метеорологических станциях:

Погода в Salla Varriotunturi (Финляндия) (41 км)
Погода в Алакуртти (Мурманская область, Россия) (69 км)
Погода в Salla Naruska (Финляндия) (71 км)
Погода в Ниванкюле (Мурманская область, Россия) (88 км)
Погода в Зашейке (Мурманская область, Россия) (91 км)
Погода в Кандалакше (Мурманская область, Россия) (94 км)
Погода в Порту Витино (Мурманская область, Россия) (97 км)
Погода в Порту Кандалакша (Мурманская область, Россия) (98 км)
Погода в Savukoski (Финляндия) (102 км)
Погода в Зареченске (Мурманская область, Россия) (108 км)

Пояснения к столбцам:

Ветер - указаны скорость ветра в м/с - средняя за 10 мин, порывы в срок и между сроками (в фигурных скобках) и направление, откуда дует ветер: С - северный, СВ - северо-восточный, В - восточный, ЮВ - юго-восточный, Ю - южный, ЮЗ - юго-западный, З - западный, СЗ - северо-западный.
Видимость - горизонтальная дальность видимости в метрах или километрах. При видимости от 1 до 10 км при отсутствии осадков обычно наблюдается дымка, при ухудшении видимости до 1 км и менее - туман. В сухую погоду видимость может ухудшаться дымом, пылью или мглою.
Явления - указаны атмосферные явления, наблюдавшиеся в срок или в последний час перед сроком; фигурными скобками обозначены явления, наблюдавшиеся между сроками (за 1-3 часа до срока); квадратными скобками обозначены град или гололедные отложения с указанием их диаметра в мм.
Облачность - указаны через наклонную черту общая и нижняя облачность в баллах и высота нижней границы облаков в метрах; квадратными скобками обозначены формы облаков: Ci - перистые, Cs - перисто-слоистые, Cc - перисто-кучевые, Ac - высококучевые, As - высокослоистые, Sc - слоисто-кучевые, Ns - слоисто-дождевые, Cu - кучевые, Cb - кучево-дождевые. Подробнее классификацию облаков см. в Атласе облаков (PDF).
T - Температура воздуха - температура, измеренная на высоте 2 м над землей.
Td - Температура точки росы - температура, при понижении до которой содержащийся в воздухе водяной пар достигнет насыщения.
f - Относительная влажность воздуха - влажноcть воздуха, измеренная на высоте 2 м над землей.
Te - Эффективная температура - температура, которую ощущает одетый по сезону человек в тени. Характеристика душности погоды. При расчете учитывается влияние влажности воздуха и скорости ветра на теплоощущения человека.
Tes - Эффективная температура на солнце - температура, которую ощущает человек, с поправкой на солнечный нагрев. Характеристика знойности погоды. Зависит от высоты солнца над горизонтом, облачности и скорости ветра. Ночью, в пасмурную погоду, а также при ветре 12 м/с и более поправка равна нулю.
P - Атмосферное давление - приведенное к уровню моря атмосферное давление.
Po - Атмосферное давление - измеренное на уровне метеостанции атмосферное давление.
Tmin - Минимальная температура - минимум температуры воздуха на высоте 2 м над землей.
Tmax - Максимальная температура - максимум температуры воздуха на высоте 2 м над землей.
R - Количество осадков - Количество выпавших осадков за период времени, мм. При наведении курсора мыши на число - период времени, за который выпало указанное количество осадков.
R24 - Количество осадков - Количество выпавших осадков за 24 часа, мм.
S - Снежный покров - Высота снежного покрова, см. При наведении курсора мыши на число - состояние снежного покрова и степень покрытия местности в баллах.